Home   Weather   Germany   Idar-Oberstein   Past weeks
Flag for Germany

Past Weather in Idar-Oberstein, Rhineland-Palatinate, Germany — Yesterday and Last 2 Weeks

Currently: 39 °F. Passing clouds. (Weather station: Hahn, Germany). See more current weather

Past Weather in Idar-Oberstein — Graph

°F

Idar-Oberstein Temperature Yesterday

Maximum temperature yesterday: 45 °F (at 2:50 pm)
Minimum temperature yesterday: 37 °F (at 4:20 am)
Average temperature yesterday: 41 °F

High & Low Weather Summary for the Past Weeks

 TemperatureHumidityPressure
High54 °F (Feb 15, 11:50 am)100% (Feb 12, 4:20 am)30.54 "Hg (Feb 12, 4:20 am)
Low32 °F (Feb 24, 10:20 pm)66% (Feb 21, 3:20 pm)29.09 "Hg (Feb 22, 7:20 pm)
Average43 °F94%29.91 "Hg
* Reported Feb 12 4:20 am — Feb 27 4:50 am, Idar-Oberstein. Weather by CustomWeather, © 2024

Note: Actual official high and low records may vary slightly from our data, if they occured in-between our weather recording intervals... More about our weather records

Idar-Oberstein Weather History for the Previous 24 Hours

Scroll right to see more
 ConditionsComfort  
Time TempWeatherWind HumidityBarometerVisibility
4:50 am
Tue, Feb 27
39 °FPassing clouds.9 mph100%29.86 "Hg4 mi
4:20 am39 °FPassing clouds.10 mph100%29.83 "Hg2 mi
3:50 am39 °FPassing clouds.10 mph100%29.83 "Hg2 mi
2:50 am39 °FFog.7 mph100%29.83 "Hg2 mi
2:20 am39 °FPassing clouds.5 mph100%29.83 "Hg2 mi
1:50 am37 °FPassing clouds.7 mph100%29.80 "Hg4 mi
12:20 am39 °FPassing clouds.7 mph100%29.80 "HgN/A
11:50 pm
Mon, Feb 26
39 °FPassing clouds.7 mph100%29.77 "HgN/A
11:20 pm39 °FPassing clouds.8 mph100%29.77 "HgN/A
10:50 pm39 °FPassing clouds.7 mph100%29.74 "HgN/A
10:20 pm39 °FClear.8 mph100%29.74 "Hg10 mi
9:50 pm41 °FClear.8 mph100%29.74 "Hg10 mi
9:20 pm41 °FPassing clouds.6 mph100%29.71 "HgN/A
8:50 pm41 °FPassing clouds.6 mph100%29.68 "HgN/A
8:20 pm41 °FPassing clouds.8 mph100%29.68 "HgN/A
7:50 pm41 °FPassing clouds.6 mph100%29.68 "HgN/A
7:20 pm41 °FPassing clouds.7 mph100%29.65 "Hg4 mi
6:50 pm43 °FPassing clouds.6 mph100%29.65 "Hg4 mi
6:20 pm43 °FPassing clouds.5 mph100%29.62 "HgN/A
5:50 pm43 °FPartly sunny.6 mph100%29.62 "HgN/A
5:20 pm43 °FPartly sunny.5 mph100%29.59 "HgN/A
4:50 pm45 °FPartly sunny.7 mph100%29.59 "HgN/A
4:20 pm43 °FBroken clouds.7 mph100%29.56 "HgN/A
3:50 pm45 °FBroken clouds.7 mph100%29.56 "HgN/A
3:20 pm45 °FPartly sunny.7 mph100%29.56 "HgN/A
2:50 pm45 °FPartly sunny.6 mph93%29.53 "HgN/A
2:20 pm43 °FPartly sunny.9 mph100%29.53 "Hg6 mi
1:50 pm43 °FPartly sunny.9 mph100%29.53 "Hg4 mi
1:20 pm41 °FFog.9 mph100%29.50 "Hg1 mi
12:50 pm41 °FFog.9 mph100%29.50 "Hg2 mi
12:20 pm41 °FFog.10 mph100%29.50 "Hg1 mi
11:50 am41 °FFog.12 mph100%29.50 "Hg2 mi
11:20 am41 °FFog.10 mph100%29.47 "Hg2 mi
10:50 am41 °FFog.13 mph100%29.47 "Hg2 mi
10:20 am39 °FFog.14 mph100%29.47 "Hg1 mi
9:50 am39 °FLight rain. Partly sunny.14 mph100%29.45 "Hg4 mi
9:20 am39 °FLight rain. Partly sunny.14 mph100%29.45 "Hg5 mi
8:50 am39 °FLight rain. Partly sunny.15 mph100%29.45 "Hg4 mi
8:20 am39 °FDrizzle. Fog.15 mph100%29.45 "Hg2 mi
7:50 am39 °FDrizzle. Partly sunny.13 mph100%29.42 "Hg4 mi
7:20 am39 °FPassing clouds.12 mph100%29.42 "Hg5 mi
6:50 am39 °FPassing clouds.14 mph100%29.42 "Hg4 mi
6:20 am37 °FPassing clouds.14 mph100%29.42 "Hg2 mi
5:50 am37 °FPassing clouds.16 mph100%29.39 "Hg4 mi
5:20 am37 °FPassing clouds.15 mph100%29.39 "Hg4 mi
Weather by CustomWeather, © 2024

See weather overview